Regional Weather Roundup
Issued by NWS

Home | Current Version | Previous Version | Text Only | Print | Product List | Glossary Off
Versions: 1 2 3 4 5 6 7 8 9 10 11 12 13 14 15 16 17 18 19 20 21 22 23 24 25 26 27 28 29 30 31 32 33 34 35 36 37 38 39 40 41 42 43 44 45 46 47 48 49 50

221
ASUS43 KIND 281559
RWRIN

WEATHER ROUNDUP FOR INDIANA
NATIONAL WEATHER SERVICE INDIANAPOLIS IN
1200 PM EDT THU APR 28 2016

NOTE: "FAIR" INDICATES FEW OR NO CLOUDS BELOW 12,000 FEET WITH NO
SIGNIFICANT WEATHER AND/OR OBSTRUCTIONS TO VISIBILITY.

* - STATION DOES NOT REPORT WEATHER SUCH AS PRECIPITATION OR FOG.

+ - STATION NOT QUALITY CONTROLLED BY THE NATIONAL WEATHER SERVICE.
    USE DATA WITH CAUTION...ESPECIALLY DEWPOINT AND RELATIVE
    HUMIDITY OBSERVATIONS.

INZ001>003-010>013-019-020-281700-
NORTHWEST INDIANA

CITY           SKY/WX    TMP DP  RH WIND       PRES   REMARKS
GARY /AIRPORT/ CLOUDY    52  50  93 E6        29.88R
RENSSELAER +   CLOUDY    50  48  93 E9        29.86S

$$

LMZ046-743>745-281700-
SOUTHERN LAKE MICHIGAN

STATION/POSITION TIME  TEMP    WIND        PRES    WAVE
                       AIR SEA DIR/SP/G            HT
                 (UTC) (F)     (DEG/KT/KT) (MB)    (FT)
BURNS HARBOR     1508   48      90/  7/ 15 1011.9R
MICHIGAN CITY    1500   46     100/ 11/ 13   N/A

$$

INZ004-005-014>016-021>024-281700-
NORTH CENTRAL INDIANA

CITY           SKY/WX    TMP DP  RH WIND       PRES   REMARKS
ELKHART        CLOUDY    48  45  87 E16       29.91
GOSHEN         CLOUDY    49  43  80 E15       29.90R
SOUTH BEND     CLOUDY    49  42  77 SE16      29.89S

$$

INZ006>009-017-018-025>027-281700-
NORTHEAST INDIANA

CITY           SKY/WX    TMP DP  RH WIND       PRES   REMARKS
ANGOLA *+      CLOUDY    45  41  87 E16       29.92R
FORT WAYNE     CLOUDY    48  43  82 E14       29.90R

$$

INZ028-029-035-036-043>045-051>053-281700-
WEST CENTRAL INDIANA

CITY           SKY/WX    TMP DP  RH WIND       PRES   REMARKS
CRAWFORDSVL +  PTSUNNY   63  62  96 SE5       29.81S
GREENCASTLE +  PTSUNNY   68  63  83 S9        29.81S
LAFAYETTE      CLOUDY    54  51  90 NE5       29.84R
TERRE HAUTE    CLOUDY    68  60  75 SW10      29.82R

$$

INZ030>032-037>040-046>048-054>057-064-065-281700-
CENTRAL INDIANA

CITY           SKY/WX    TMP DP  RH WIND       PRES   REMARKS
ANDERSON       PTSUNNY   59  55  88 E5        29.84S
COLUMBUS       PTSUNNY   68  64  88 SW14      29.82R
INDIANAPOLIS   PTSUNNY   66  58  75 CALM      29.81R
-EAGLE CREEK   PTSUNNY   64  58  80 VRB5      29.82R
KOKOMO *+      CLOUDY    54  48  82 E12       29.85R
SHELBYVILLE    MOSUNNY   68  60  75 S7        29.81R

$$

INZ033-034-041-042-049-050-058-059-281700-
EAST CENTRAL INDIANA

CITY           SKY/WX    TMP DP  RH WIND       PRES   REMARKS
MUNCIE         PTSUNNY   59  53  80 E7        29.84R

$$

INZ060-061-067>069-081>083-085>088-281700-
SOUTHWEST INDIANA

CITY           SKY/WX    TMP DP  RH WIND       PRES   REMARKS
EVANSVILLE     MOSUNNY   71  55  56 W10       29.86R
HUNTINGBURG *+ PTSUNNY   70  63  78 SW10      29.85R

$$

INZ062-063-066-070>080-084-089>092-281700-
SOUTH CENTRAL AND SOUTHEAST INDIANA

CITY           SKY/WX    TMP DP  RH WIND       PRES   REMARKS
BLOOMINGTON    MOSUNNY   70  61  73 S9        29.82R HAZE
MADISON *+     CLOUDY    66  61  82 S5        29.86R
SEYMOUR +      PTSUNNY   70  64  83 SW3       29.83R

$$





USA.gov is the U.S. government's official web portal to all federal, state and local government web resources and services.